QPF
0.00 0.00 0.00 0.00 0.00 0.00 0.00 0.00 0.00 0.00 0.00 0.00 0.00 0.00 0.00 0.00 0.00 0.00 0.00 0.00 0.00 0.00 0.00 0.00 0.00 0.00 0.00 0.00 0.00 0.00 0.01 0.02 0.02 0.03 0.05 0.08 0.12 0.12 0.11 0.11 0.10 0.09 0.07
0.00 0.00 0.00 0.00 0.00 0.00 0.00 0.00 0.00 0.00 0.00 0.00 0.00 0.00 0.00 0.00 0.00 0.00 0.00 0.00 0.00 0.00 0.00 0.00 0.00 0.00 0.00 0.00 0.00 0.00 0.00 0.01 0.01 0.03 0.05 0.09 0.13 0.14 0.15 0.16 0.13 0.10 0.08
0.00 0.00 0.00 0.00 0.00 0.00 0.00 0.00 0.00 0.00 0.00 0.00 0.00 0.00 0.00 0.00 0.00 0.00 0.00 0.00 0.00 0.00 0.00 0.00 0.00 0.00 0.00 0.00 0.00 0.00 0.00 0.00 0.01 0.02 0.04 0.09 0.14 0.17 0.15 0.14 0.14 0.11 0.08
0.00 0.00 0.00 0.00 0.00 0.00 0.00 0.00 0.00 0.00 0.00 0.00 0.00 0.00 0.00 0.00 0.00 0.00 0.00 0.00 0.00 0.00 0.00 0.00 0.00 0.00 0.00 0.00 0.00 0.00 0.00 0.00 0.01 0.01 0.02 0.08 0.15 0.19 0.18 0.14 0.12 0.10 0.08
0.00 0.00 0.00 0.00 0.00 0.00 0.00 0.00 0.00 0.00 0.00 0.00 0.00 0.00 0.00 0.00 0.00 0.00 0.00 0.00 0.00 0.00 0.00 0.00 0.00 0.00 0.00 0.00 0.00 0.00 0.00 0.00 0.01 0.01 0.02 0.06 0.14 0.20 0.18 0.15 0.14 0.12 0.08
0.00 0.00 0.00 0.00 0.00 0.00 0.00 0.00 0.00 0.00 0.00 0.00 0.00 0.00 0.00 0.00 0.00 0.00 0.00 0.00 0.00 0.00 0.00 0.00 0.00 0.00 0.00 0.00 0.00 0.00 0.00 0.00 0.00 0.01 0.02 0.04 0.09 0.18 0.25 0.26 0.21 0.13 0.07
0.00 0.00 0.00 0.00 0.00 0.00 0.00 0.00 0.00 0.00 0.00 0.00 0.00 0.00 0.00 0.00 0.00 0.00 0.00 0.00 0.00 0.00 0.00 0.00 0.00 0.00 0.00 0.00 0.00 0.00 0.00 0.00 0.00 0.00 0.01 0.03 0.06 0.15 0.29 0.30 0.26 0.20 0.12
0.00 0.00 0.00 0.00 0.00 0.00 0.00 0.00 0.00 0.00 0.00 0.00 0.00 0.00 0.00 0.00 0.00 0.00 0.00 0.00 0.00 0.00 0.00 0.00 0.00 0.00 0.00 0.00 0.00 0.00 0.00 0.00 0.00 0.00 0.01 0.02 0.05 0.12 0.26 0.35 0.37 0.32 0.23
0.00 0.00 0.00 0.00 0.00 0.00 0.00 0.00 0.00 0.00 0.00 0.00 0.00 0.00 0.00 0.00 0.00 0.00 0.01 0.01 0.00 0.00 0.00 0.00 0.00 0.00 0.00 0.00 0.00 0.00 0.01 0.01 0.01 0.01 0.01 0.03 0.05 0.09 0.22 0.37 0.45 0.43 0.31
0.00 0.00 0.00 0.00 0.00 0.00 0.00 0.00 0.00 0.00 0.00 0.00 0.00 0.00 0.00 0.00 0.00 0.00 0.01 0.01 0.01 0.00 0.00 0.00 0.00 0.00 0.00 0.00 0.00 0.01 0.01 0.01 0.01 0.01 0.02 0.03 0.06 0.09 0.18 0.29 0.36 0.37 0.30
0.00 0.00 0.00 0.00 0.00 0.00 0.00 0.00 0.00 0.00 0.00 0.00 0.00 0.00 0.00 0.00 0.00 0.00 0.00 0.01 0.01 0.01 0.01 0.00 0.00 0.00 0.00 0.01 0.01 0.01 0.01 0.02 0.02 0.02 0.02 0.03 0.06 0.10 0.14 0.23 0.30 0.30 0.26
0.00 0.00 0.00 0.00 0.00 0.00 0.00 0.00 0.00 0.00 0.00 0.00 0.00 0.00 0.00 0.00 0.00 0.00 0.00 0.01 0.01 0.01 0.01 0.01 0.01 0.01 0.01 0.01 0.01 0.02 0.03 0.03 0.04 0.04 0.03 0.03 0.04 0.08 0.13 0.18 0.25 0.30 0.26
0.00 0.00 0.00 0.00 0.00 0.00 0.00 0.00 0.00 0.00 0.00 0.00 0.00 0.00 0.00 0.00 0.00 0.00 0.00 0.01 0.01 0.01 0.02 0.02 0.02 0.03 0.03 0.04 0.03 0.03 0.04 0.04 0.04 0.04 0.03 0.02 0.02 0.05 0.11 0.19 0.27 0.37 0.35
0.00 0.00 0.00 0.00 0.00 0.00 0.00 0.00 0.00 0.00 0.00 0.00 0.00 0.00 0.00 0.00 0.00 0.00 0.00 0.00 0.00 0.01 0.03 0.05 0.06 0.06 0.07 0.07 0.07 0.06 0.05 0.06 0.05 0.04 0.04 0.03 0.03 0.06 0.11 0.19 0.29 0.37 0.39
0.00 0.00 0.00 0.00 0.00 0.00 0.00 0.00 0.00 0.00 0.00 0.00 0.00 0.00 0.01 0.01 0.01 0.01 0.00 0.00 0.01 0.01 0.03 0.06 0.10 0.12 0.11 0.14 0.12 0.10 0.09 0.09 0.08 0.07 0.06 0.04 0.04 0.05 0.09 0.17 0.27 0.31 0.31
0.00 0.00 0.00 0.00 0.00 0.00 0.00 0.00 0.00 0.00 0.00 0.00 0.01 0.01 0.01 0.01 0.00 0.00 0.01 0.01 0.01 0.02 0.03 0.06 0.12 0.17 0.17 0.19 0.18 0.15 0.13 0.10 0.09 0.09 0.07 0.05 0.04 0.04 0.07 0.15 0.24 0.29 0.27
0.00 0.00 0.00 0.00 0.00 0.00 0.00 0.00 0.00 0.00 0.00 0.00 0.01 0.00 0.00 0.00 0.00 0.00 0.01 0.01 0.02 0.02 0.04 0.06 0.09 0.13 0.19 0.22 0.18 0.15 0.14 0.12 0.09 0.09 0.07 0.06 0.05 0.04 0.04 0.11 0.19 0.27 0.29
0.00 0.00 0.00 0.00 0.00 0.00 0.00 0.00 0.00 0.00 0.00 0.00 0.00 0.01 0.01 0.01 0.01 0.01 0.01 0.01 0.01 0.02 0.03 0.04 0.05 0.07 0.13 0.17 0.15 0.12 0.12 0.11 0.10 0.09 0.08 0.06 0.05 0.04 0.04 0.06 0.14 0.22 0.26
0.00 0.00 0.00 0.00 0.00 0.00 0.00 0.00 0.00 0.00 0.00 0.01 0.01 0.01 0.01 0.01 0.01 0.01 0.01 0.00 0.01 0.02 0.02 0.02 0.02 0.04 0.05 0.06 0.08 0.11 0.12 0.11 0.09 0.08 0.07 0.05 0.04 0.04 0.04 0.04 0.09 0.18 0.23
0.00 0.00 0.00 0.00 0.00 0.00 0.00 0.00 0.00 0.00 0.01 0.01 0.01 0.01 0.01 0.01 0.01 0.01 0.01 0.01 0.01 0.02 0.02 0.01 0.02 0.02 0.03 0.03 0.05 0.06 0.08 0.09 0.08 0.06 0.05 0.05 0.04 0.04 0.04 0.04 0.05 0.11 0.18
0.00 0.00 0.00 0.00 0.00 0.00 0.00 0.00 0.00 0.00 0.00 0.01 0.01 0.01 0.01 0.01 0.01 0.01 0.01 0.01 0.01 0.01 0.02 0.01 0.02 0.02 0.02 0.03 0.04 0.05 0.06 0.06 0.06 0.05 0.05 0.04 0.04 0.03 0.04 0.04 0.04 0.06 0.13
0.00 0.00 0.00 0.00 0.00 0.00 0.00 0.00 0.00 0.00 0.00 0.00 0.01 0.01 0.02 0.02 0.02 0.02 0.02 0.02 0.02 0.02 0.01 0.01 0.01 0.01 0.01 0.02 0.02 0.03 0.04 0.03 0.04 0.04 0.05 0.05 0.04 0.03 0.03 0.04 0.04 0.04 0.10
0.00 0.00 0.00 0.00 0.00 0.00 0.00 0.00 0.00 0.00 0.00 0.01 0.01 0.01 0.03 0.03 0.04 0.04 0.03 0.03 0.03 0.03 0.02 0.01 0.00 0.00 0.00 0.00 0.01 0.01 0.01 0.01 0.02 0.03 0.04 0.04 0.04 0.03 0.03 0.03 0.03 0.03 0.06
0.00 0.00 0.00 0.00 0.00 0.00 0.00 0.00 0.00 0.00 0.00 0.01 0.01 0.02 0.03 0.04 0.05 0.05 0.04 0.04 0.04 0.03 0.02 0.02 0.01 0.00 0.00 0.00 0.00 0.00 0.00 0.00 0.01 0.02 0.03 0.02 0.02 0.01 0.02 0.02 0.03 0.04 0.04
0.00 0.00 0.00 0.00 0.00 0.00 0.00 0.00 0.00 0.00 0.00 0.01 0.02 0.02 0.03 0.04 0.05 0.05 0.05 0.06 0.06 0.04 0.03 0.02 0.01 0.01 0.00 0.00 0.00 0.00 0.00 0.00 0.00 0.01 0.02 0.01 0.01 0.01 0.01 0.02 0.02 0.04 0.05
0.00 0.00 0.00 0.00 0.00 0.00 0.00 0.00 0.00 0.00 0.01 0.02 0.01 0.02 0.03 0.03 0.05 0.05 0.06 0.06 0.07 0.06 0.04 0.03 0.02 0.01 0.01 0.01 0.01 0.00 0.00 0.00 0.00 0.01 0.01 0.01 0.01 0.01 0.01 0.01 0.02 0.04 0.06
MSLP
1014.64 1014.72 1014.83 1014.93 1014.98 1014.98 1014.91 1014.79 1014.64 1014.47 1014.31 1014.16 1014.01 1013.88 1013.74 1013.59 1013.43 1013.26 1013.10 1012.96 1012.85 1012.79 1012.75 1012.75 1012.74 1012.72 1012.65 1012.54 1012.36 1012.13 1011.87 1011.58 1011.28 1011.00 1010.74 1010.52 1010.32 1010.16 1010.05 1009.98 1009.98 1010.05 1010.21
1014.41 1014.42 1014.47 1014.51 1014.53 1014.50 1014.42 1014.30 1014.16 1014.00 1013.84 1013.69 1013.55 1013.42 1013.28 1013.13 1012.97 1012.80 1012.65 1012.50 1012.39 1012.31 1012.25 1012.22 1012.20 1012.18 1012.13 1012.04 1011.93 1011.78 1011.61 1011.42 1011.23 1011.05 1010.87 1010.70 1010.55 1010.42 1010.32 1010.25 1010.24 1010.30 1010.44
1014.15 1014.11 1014.10 1014.10 1014.07 1014.01 1013.92 1013.79 1013.63 1013.47 1013.31 1013.16 1013.01 1012.87 1012.72 1012.56 1012.40 1012.24 1012.08 1011.93 1011.81 1011.71 1011.64 1011.60 1011.57 1011.55 1011.53 1011.48 1011.43 1011.36 1011.27 1011.18 1011.08 1010.98 1010.88 1010.78 1010.69 1010.60 1010.53 1010.50 1010.52 1010.59 1010.74
1013.83 1013.77 1013.73 1013.69 1013.63 1013.54 1013.42 1013.27 1013.10 1012.92 1012.75 1012.58 1012.42 1012.26 1012.10 1011.94 1011.77 1011.60 1011.43 1011.28 1011.15 1011.05 1010.97 1010.93 1010.91 1010.90 1010.90 1010.90 1010.89 1010.88 1010.86 1010.84 1010.81 1010.78 1010.74 1010.70 1010.66 1010.63 1010.61 1010.64 1010.70 1010.83 1011.02
1013.46 1013.40 1013.34 1013.28 1013.19 1013.08 1012.93 1012.76 1012.58 1012.38 1012.19 1012.00 1011.82 1011.64 1011.46 1011.28 1011.09 1010.91 1010.73 1010.58 1010.45 1010.34 1010.28 1010.24 1010.23 1010.24 1010.27 1010.30 1010.33 1010.36 1010.39 1010.41 1010.42 1010.42 1010.42 1010.42 1010.42 1010.45 1010.50 1010.59 1010.74 1010.94 1011.20
1013.05 1013.00 1012.95 1012.88 1012.78 1012.65 1012.48 1012.29 1012.08 1011.87 1011.66 1011.44 1011.24 1011.03 1010.82 1010.62 1010.41 1010.21 1010.02 1009.86 1009.73 1009.63 1009.57 1009.55 1009.56 1009.59 1009.64 1009.70 1009.75 1009.80 1009.84 1009.87 1009.89 1009.91 1009.92 1009.94 1009.98 1010.06 1010.17 1010.34 1010.57 1010.87 1011.22
1012.64 1012.62 1012.58 1012.51 1012.40 1012.25 1012.07 1011.86 1011.63 1011.40 1011.16 1010.92 1010.68 1010.44 1010.20 1009.96 1009.73 1009.51 1009.31 1009.13 1009.00 1008.91 1008.86 1008.85 1008.88 1008.93 1008.99 1009.06 1009.13 1009.18 1009.22 1009.24 1009.26 1009.26 1009.27 1009.31 1009.37 1009.48 1009.65 1009.90 1010.22 1010.61 1011.05
1012.29 1012.30 1012.27 1012.19 1012.07 1011.91 1011.70 1011.47 1011.21 1010.95 1010.68 1010.41 1010.14 1009.86 1009.59 1009.32 1009.06 1008.81 1008.59 1008.40 1008.26 1008.17 1008.12 1008.12 1008.16 1008.22 1008.30 1008.37 1008.44 1008.49 1008.52 1008.53 1008.53 1008.52 1008.53 1008.56 1008.64 1008.79 1009.01 1009.31 1009.71 1010.18 1010.72
1012.03 1012.05 1012.02 1011.93 1011.79 1011.59 1011.36 1011.09 1010.80 1010.50 1010.20 1009.89 1009.59 1009.28 1008.97 1008.67 1008.38 1008.11 1007.87 1007.66 1007.51 1007.41 1007.36 1007.35 1007.39 1007.45 1007.53 1007.61 1007.67 1007.72 1007.74 1007.75 1007.74 1007.73 1007.74 1007.78 1007.88 1008.04 1008.30 1008.65 1009.10 1009.64 1010.25
1011.87 1011.89 1011.83 1011.72 1011.53 1011.30 1011.01 1010.70 1010.37 1010.03 1009.69 1009.34 1009.00 1008.67 1008.33 1008.01 1007.70 1007.40 1007.14 1006.92 1006.75 1006.63 1006.56 1006.54 1006.56 1006.61 1006.68 1006.75 1006.82 1006.87 1006.90 1006.92 1006.93 1006.93 1006.96 1007.01 1007.13 1007.32 1007.60 1007.98 1008.47 1009.04 1009.69
1011.78 1011.77 1011.68 1011.51 1011.28 1010.98 1010.64 1010.27 1009.88 1009.50 1009.11 1008.74 1008.37 1008.01 1007.66 1007.33 1007.01 1006.70 1006.43 1006.20 1006.00 1005.86 1005.76 1005.71 1005.70 1005.73 1005.78 1005.84 1005.91 1005.97 1006.02 1006.06 1006.10 1006.14 1006.20 1006.30 1006.44 1006.65 1006.95 1007.34 1007.83 1008.42 1009.09
1011.71 1011.66 1011.51 1011.29 1010.98 1010.61 1010.21 1009.77 1009.33 1008.90 1008.48 1008.07 1007.69 1007.32 1006.97 1006.64 1006.32 1006.03 1005.75 1005.51 1005.30 1005.13 1005.00 1004.91 1004.85 1004.84 1004.86 1004.90 1004.96 1005.03 1005.11 1005.19 1005.28 1005.37 1005.49 1005.62 1005.80 1006.04 1006.35 1006.74 1007.22 1007.79 1008.45
1011.58 1011.48 1011.29 1010.99 1010.62 1010.19 1009.71 1009.22 1008.72 1008.24 1007.78 1007.35 1006.96 1006.60 1006.27 1005.96 1005.67 1005.40 1005.14 1004.90 1004.67 1004.48 1004.30 1004.16 1004.06 1003.99 1003.96 1003.97 1004.02 1004.10 1004.20 1004.33 1004.46 1004.62 1004.79 1004.98 1005.20 1005.46 1005.77 1006.16 1006.62 1007.16 1007.79
1011.35 1011.21 1010.96 1010.62 1010.18 1009.69 1009.16 1008.61 1008.06 1007.54 1007.06 1006.62 1006.23 1005.89 1005.58 1005.31 1005.06 1004.83 1004.60 1004.37 1004.15 1003.93 1003.72 1003.52 1003.36 1003.23 1003.14 1003.11 1003.13 1003.20 1003.32 1003.47 1003.66 1003.86 1004.08 1004.32 1004.58 1004.87 1005.19 1005.57 1006.01 1006.52 1007.12
1010.97 1010.80 1010.53 1010.15 1009.68 1009.15 1008.57 1007.98 1007.40 1006.85 1006.35 1005.90 1005.52 1005.20 1004.94 1004.71 1004.51 1004.33 1004.14 1003.94 1003.72 1003.49 1003.25 1003.00 1002.78 1002.58 1002.43 1002.34 1002.32 1002.36 1002.48 1002.64 1002.85 1003.10 1003.36 1003.64 1003.93 1004.24 1004.58 1004.95 1005.38 1005.87 1006.45
1010.44 1010.28 1010.00 1009.61 1009.14 1008.59 1007.99 1007.38 1006.78 1006.21 1005.69 1005.24 1004.87 1004.57 1004.34 1004.16 1004.02 1003.88 1003.74 1003.57 1003.37 1003.14 1002.87 1002.59 1002.31 1002.05 1001.84 1001.68 1001.61 1001.62 1001.70 1001.86 1002.07 1002.33 1002.62 1002.92 1003.24 1003.57 1003.92 1004.30 1004.73 1005.22 1005.79
1009.81 1009.67 1009.42 1009.06 1008.60 1008.06 1007.47 1006.85 1006.23 1005.65 1005.12 1004.66 1004.29 1004.00 1003.80 1003.66 1003.55 1003.46 1003.36 1003.23 1003.05 1002.82 1002.55 1002.24 1001.92 1001.61 1001.34 1001.13 1001.00 1000.96 1001.01 1001.14 1001.34 1001.59 1001.88 1002.20 1002.53 1002.88 1003.24 1003.64 1004.08 1004.59 1005.17
1009.12 1009.03 1008.83 1008.52 1008.10 1007.60 1007.03 1006.42 1005.79 1005.19 1004.64 1004.17 1003.78 1003.49 1003.29 1003.16 1003.08 1003.02 1002.95 1002.85 1002.69 1002.48 1002.21 1001.90 1001.56 1001.22 1000.92 1000.67 1000.49 1000.41 1000.41 1000.51 1000.68 1000.92 1001.20 1001.51 1001.85 1002.20 1002.59 1003.01 1003.48 1004.01 1004.62
1008.43 1008.40 1008.27 1008.03 1007.68 1007.22 1006.68 1006.09 1005.46 1004.85 1004.27 1003.76 1003.35 1003.03 1002.80 1002.65 1002.57 1002.51 1002.46 1002.37 1002.24 1002.06 1001.81 1001.51 1001.18 1000.84 1000.52 1000.25 1000.05 999.94 999.92 999.98 1000.12 1000.33 1000.60 1000.90 1001.24 1001.60 1002.00 1002.45 1002.95 1003.52 1004.16
1007.76 1007.81 1007.76 1007.60 1007.32 1006.92 1006.43 1005.85 1005.23 1004.59 1003.98 1003.43 1002.96 1002.59 1002.31 1002.12 1002.00 1001.93 1001.86 1001.79 1001.67 1001.51 1001.29 1001.02 1000.72 1000.41 1000.11 999.86 999.67 999.55 999.52 999.56 999.69 999.88 1000.12 1000.41 1000.74 1001.11 1001.53 1002.00 1002.53 1003.13 1003.81
1007.16 1007.28 1007.32 1007.24 1007.03 1006.69 1006.23 1005.68 1005.06 1004.40 1003.75 1003.15 1002.61 1002.17 1001.82 1001.56 1001.39 1001.27 1001.17 1001.08 1000.97 1000.83 1000.64 1000.42 1000.17 999.91 999.67 999.46 999.30 999.21 999.19 999.24 999.36 999.55 999.78 1000.06 1000.39 1000.76 1001.19 1001.67 1002.22 1002.85 1003.55
1006.62 1006.81 1006.92 1006.92 1006.77 1006.49 1006.08 1005.54 1004.92 1004.25 1003.57 1002.91 1002.30 1001.78 1001.35 1001.01 1000.75 1000.57 1000.42 1000.30 1000.18 1000.05 999.89 999.72 999.53 999.34 999.17 999.03 998.94 998.90 998.92 999.00 999.14 999.33 999.56 999.84 1000.17 1000.54 1000.96 1001.45 1002.01 1002.64 1003.36
1006.14 1006.39 1006.56 1006.62 1006.53 1006.30 1005.92 1005.42 1004.81 1004.13 1003.42 1002.71 1002.04 1001.45 1000.93 1000.50 1000.16 999.89 999.68 999.51 999.37 999.23 999.10 998.97 998.85 998.74 998.65 998.59 998.58 998.61 998.69 998.82 998.99 999.20 999.45 999.73 1000.05 1000.42 1000.84 1001.32 1001.87 1002.49 1003.19
1005.75 1006.04 1006.24 1006.34 1006.30 1006.11 1005.77 1005.29 1004.70 1004.03 1003.31 1002.57 1001.86 1001.20 1000.61 1000.10 999.67 999.32 999.04 998.81 998.63 998.48 998.35 998.25 998.18 998.14 998.13 998.16 998.23 998.34 998.49 998.67 998.89 999.13 999.39 999.68 1000.00 1000.36 1000.76 1001.23 1001.75 1002.35 1003.03
1005.45 1005.75 1005.98 1006.10 1006.08 1005.92 1005.62 1005.17 1004.61 1003.96 1003.25 1002.51 1001.78 1001.08 1000.44 999.86 999.36 998.93 998.57 998.28 998.04 997.86 997.73 997.64 997.60 997.61 997.67 997.77 997.92 998.10 998.32 998.56 998.82 999.09 999.37 999.67 999.98 1000.33 1000.71 1001.15 1001.64 1002.21 1002.84
1005.28 1005.56 1005.78 1005.90 1005.90 1005.76 1005.48 1005.08 1004.56 1003.94 1003.26 1002.55 1001.82 1001.11 1000.44 999.82 999.26 998.76 998.33 997.97 997.68 997.46 997.30 997.22 997.19 997.23 997.33 997.49 997.69 997.93 998.20 998.49 998.78 999.07 999.37 999.67 999.97 1000.30 1000.66 1001.06 1001.52 1002.04 1002.62
Thickness
5661 5656 5651 5646 5642 5636 5631 5627 5623 5618 5614 5609 5605 5601 5597 5594 5591 5588 5587 5586 5587 5588 5590 5593 5596 5599 5602 5607 5612 5617 5622 5627 5633 5643 5650 5658 5665 5672 5677 5682 5686 5691 5695
5659 5653 5648 5642 5637 5631 5627 5623 5618 5613 5608 5603 5598 5594 5590 5588 5585 5582 5580 5580 5579 5579 5581 5583 5586 5589 5592 5596 5601 5607 5612 5619 5625 5632 5639 5647 5655 5661 5666 5671 5675 5679 5684
5655 5649 5644 5638 5632 5627 5622 5617 5612 5607 5602 5597 5592 5588 5584 5581 5579 5576 5574 5573 5573 5572 5573 5574 5576 5578 5582 5586 5590 5596 5602 5609 5615 5622 5629 5636 5644 5651 5656 5659 5663 5667 5672
5651 5645 5639 5634 5628 5623 5617 5612 5606 5601 5596 5591 5586 5582 5578 5575 5573 5570 5569 5568 5567 5566 5566 5566 5567 5569 5572 5576 5580 5585 5591 5597 5604 5612 5619 5625 5633 5641 5646 5650 5652 5656 5660
5647 5641 5636 5630 5624 5618 5612 5607 5601 5595 5590 5585 5580 5576 5572 5568 5566 5564 5562 5561 5559 5558 5558 5558 5558 5560 5562 5565 5570 5575 5580 5586 5593 5601 5609 5615 5623 5631 5638 5643 5645 5647 5650
5642 5637 5632 5625 5619 5613 5607 5601 5595 5590 5584 5579 5574 5570 5566 5563 5561 5558 5555 5553 5551 5550 5550 5549 5549 5550 5553 5556 5560 5565 5569 5574 5582 5589 5598 5606 5614 5622 5629 5634 5638 5639 5642
5638 5632 5627 5620 5613 5607 5601 5595 5589 5584 5578 5572 5568 5563 5560 5557 5553 5550 5547 5545 5543 5542 5541 5540 5540 5542 5542 5544 5548 5553 5558 5564 5571 5579 5588 5597 5605 5615 5621 5626 5631 5635 5638
5633 5627 5621 5614 5608 5601 5594 5588 5583 5577 5571 5566 5562 5557 5554 5552 5548 5544 5540 5537 5535 5534 5532 5530 5530 5530 5530 5531 5534 5539 5545 5552 5559 5568 5578 5587 5595 5604 5613 5620 5625 5627 5628
5627 5621 5615 5608 5602 5595 5588 5582 5576 5570 5565 5560 5556 5551 5548 5546 5542 5538 5533 5529 5527 5525 5523 5521 5519 5519 5519 5518 5521 5526 5532 5538 5544 5553 5563 5574 5584 5593 5602 5608 5613 5618 5620
5622 5616 5609 5602 5595 5588 5582 5576 5570 5564 5559 5554 5550 5546 5542 5540 5536 5531 5526 5522 5519 5517 5514 5512 5510 5508 5507 5506 5508 5513 5519 5526 5531 5540 5549 5560 5571 5582 5591 5601 5609 5613 5616
5617 5610 5603 5596 5589 5582 5576 5570 5564 5559 5554 5549 5545 5542 5538 5535 5531 5526 5520 5515 5512 5510 5507 5505 5502 5499 5496 5495 5495 5501 5507 5511 5517 5526 5537 5549 5560 5571 5583 5593 5603 5610 5614
5610 5604 5597 5590 5582 5578 5570 5564 5559 5553 5549 5545 5541 5538 5535 5531 5526 5521 5516 5510 5506 5502 5501 5499 5496 5491 5487 5485 5485 5488 5491 5495 5504 5514 5526 5539 5551 5564 5576 5586 5595 5603 5610
5603 5596 5590 5583 5576 5569 5564 5559 5554 5549 5545 5542 5538 5535 5532 5528 5522 5517 5511 5506 5502 5498 5496 5493 5489 5484 5480 5478 5478 5479 5481 5487 5496 5507 5520 5533 5545 5556 5565 5575 5584 5592 5599
5597 5590 5583 5576 5570 5564 5559 5554 5550 5547 5543 5539 5536 5532 5529 5525 5520 5514 5508 5503 5499 5495 5492 5489 5485 5481 5477 5475 5475 5476 5478 5483 5491 5502 5514 5524 5533 5543 5555 5567 5577 5585 5590
5590 5583 5576 5570 5564 5559 5555 5551 5548 5545 5540 5536 5534 5530 5526 5524 5520 5512 5505 5501 5497 5492 5488 5487 5485 5482 5479 5477 5476 5477 5478 5481 5487 5496 5506 5516 5526 5537 5549 5560 5570 5579 5586
5584 5577 5570 5564 5559 5555 5552 5550 5548 5543 5540 5536 5531 5526 5524 5519 5515 5509 5504 5499 5495 5490 5488 5488 5487 5484 5483 5482 5481 5481 5482 5485 5490 5497 5505 5515 5524 5534 5544 5554 5565 5575 5583
5578 5571 5564 5559 5555 5551 5548 5545 5545 5545 5541 5537 5533 5529 5524 5519 5514 5509 5504 5499 5495 5492 5491 5490 5488 5487 5486 5485 5485 5486 5488 5490 5494 5499 5507 5515 5523 5531 5541 5551 5561 5570 5578
5573 5566 5560 5555 5550 5547 5544 5541 5539 5538 5538 5538 5535 5531 5526 5520 5515 5509 5504 5499 5498 5496 5494 5494 5492 5491 5490 5490 5491 5491 5493 5494 5498 5503 5509 5515 5523 5531 5539 5550 5559 5569 5576
5568 5561 5555 5550 5547 5543 5540 5538 5536 5534 5533 5532 5532 5531 5526 5521 5515 5510 5504 5500 5500 5499 5498 5497 5496 5496 5495 5496 5496 5496 5497 5499 5502 5506 5512 5518 5524 5532 5541 5550 5559 5565 5573
5564 5559 5554 5548 5544 5540 5538 5536 5534 5532 5531 5530 5529 5528 5525 5520 5517 5513 5507 5504 5502 5502 5501 5501 5501 5501 5501 5501 5501 5501 5502 5504 5506 5510 5515 5520 5526 5534 5542 5550 5557 5565 5572
5560 5553 5549 5544 5540 5537 5535 5533 5531 5530 5529 5528 5528 5527 5522 5519 5518 5515 5512 5509 5507 5506 5506 5505 5506 5506 5506 5506 5507 5507 5508 5510 5513 5515 5518 5523 5528 5534 5542 5549 5556 5562 5569
5554 5548 5542 5538 5536 5533 5532 5530 5528 5527 5527 5527 5527 5526 5523 5521 5519 5517 5515 5513 5512 5510 5510 5509 5510 5511 5511 5512 5512 5513 5514 5515 5517 5520 5522 5526 5530 5536 5542 5548 5554 5560 5566
5548 5542 5538 5534 5532 5529 5528 5527 5525 5525 5525 5525 5525 5524 5523 5521 5519 5518 5517 5515 5514 5513 5513 5512 5513 5514 5515 5516 5517 5517 5519 5521 5522 5524 5526 5528 5532 5537 5543 5548 5553 5559 5564
5542 5537 5533 5530 5527 5525 5524 5523 5522 5522 5522 5522 5523 5522 5521 5520 5519 5518 5517 5516 5515 5514 5514 5514 5515 5517 5518 5519 5520 5521 5523 5525 5526 5527 5529 5532 5535 5539 5543 5548 5553 5558 5563
5535 5530 5527 5524 5522 5520 5519 5518 5518 5518 5519 5519 5520 5520 5519 5519 5518 5517 5516 5515 5514 5514 5514 5515 5516 5518 5520 5521 5523 5525 5526 5526 5528 5530 5531 5534 5537 5540 5543 5547 5551 5556 5560
5527 5523 5520 5517 5515 5514 5513 5513 5514 5514 5515 5516 5517 5517 5517 5516 5516 5515 5514 5513 5513 5513 5513 5515 5517 5519 5521 5523 5525 5526 5526 5527 5528 5530 5533 5535 5537 5540 5543 5546 5550 5555 5559